{"data":{"norad_id":52627,"epoch":"2026-09-20T04:47:15.203328Z","epoch_age_seconds":92450,"freshness":"FRESH","line1":"1 52627U 22052AF  26263.19948152 -.00001073  00000+0 -19835-4 0  9993","line2":"2 52627  53.1587 104.0805 0001326  75.7842 284.3308 15.35410249240521","mean_motion":15.35410249,"eccentricity":0.0001326,"inclination_deg":53.1587,"raan_deg":104.0805,"arg_perigee_deg":75.7842,"mean_anomaly_deg":284.3308,"bstar":-1.9835e-5,"rev_number":24052,"period_min":93.78600937032,"perigee_km":458.79551630206,"apogee_km":460.60891126155,"semimajor_km":6837.8392137818,"source":"CELESTRAK","updated_at":"2026-09-20T09:00:40.073225Z"}}